Notices

What's New in latest Release from April 7th, 2021:

- Updated Glossary, including Speed of Maximum Gust, and Total Hourly Precipitation

- Updated national and regional climate services offices contacts and prices information

- Addition of station inventory lists for 1981-2010, 1971-2000, and 1961-1990 Normals.

If you haven't already, please take our survey and provide feedback about our website: https://eccc.sondage-survey.ca/f/LanguageSelection.aspx?s=442ca660-fcf1-47c0-95a9-59707d6fd709

Hourly Data Report for December 09, 2016

CARBERRY CS
MANITOBA

49°54'20.900" N
99°21'26.800" W
383.50 m
5010547
71170
WZE

Download Data

Hourly Data (December 2016)
Hourly Data Report for December 9, 2016
TIME
LST
Temp Definition
°C
Dew Point Definition
°C
Rel Hum Definition
%
Precip. Amount Definition
mm

Wind Dir Definition
10's deg

Wind Spd Definition
km/h
Visibility Definition
km
Stn Press Definition
kPa
Hmdx Definition


Wind Chill Definition


Weather Definition


00:00 -19.1 -21.6 80 0.0 27 9   98.81   -26 LegendNANA
01:00 -18.8 -21.8 77 0.0 27 11   98.83   -26 LegendNANA
02:00 -20.6 -23.8 75 0.0 27 12   98.82   -29 LegendNANA
03:00 -25.1 -27.9 78 0.0 26 13   98.84   -35 LegendNANA
04:00 -27.1 -29.7 79 0.0 25 8   98.81   -35 LegendNANA
05:00 -29.4 -32.4 76 0.0 26 10   98.80   -38 LegendNANA
06:00 -29.4 -32.2 77 0.0 26 8   98.79   -37 LegendNANA
07:00 -26.6 -29.5 77 0.0 26 8   98.81   -34 LegendNANA
08:00 -26.7 -29.8 75 0.3 27 9   98.80   -35 LegendNANA
09:00 -25.9 -28.8 77 0.0 26 7   98.81   -33 LegendNANA
10:00 -24.3 -27.4 75 0.5 26 10   98.84   -32 LegendNANA
11:00 -22.9 -26.1 75 0.3 26 9   98.85   -30 LegendNANA
12:00 -21.2 -24.7 74 0.3 27 9   98.84   -28 LegendNANA
13:00 -21.0 -24.8 71 0.0 26 7   98.80   -27 LegendNANA
14:00 -19.9 -24.1 69 0.0 26 6   98.77   -25 LegendNANA
15:00 -20.8 -25.7 65 0.0 32 6   98.78   -26 LegendNANA
16:00 -24.6 -28.8 68 0.0 29 15   98.80   -35 LegendNANA
17:00 -26.9 -29.8 76 0.0 28 8   98.79   -34 LegendNANA
18:00 -28.6 -31.2 78 0.0 28 11   98.77   -38 LegendNANA
19:00 -28.9 -31.7 76 0.0 27 11   98.74   -38 LegendNANA
20:00 -31.0 -34.1 75 0.0 26 9   98.72   -40 LegendNANA
21:00 -31.1 -34.3 73 0.0 25 8   98.72   -39 LegendNANA
22:00 -29.0 -32.0 76 0.0 25 9   98.72   -37 LegendNANA
23:00 -31.1 -34.3 73 0.0 23 5   98.68   -37 LegendNANA

Notes on Data Quality.

Legend

  • E = Estimated
  • M = Missing
  • NA = Not Available*
  • [empty] = Indicates an unobserved value
Date modified: